Content
SEND FEEDBACK

Daily
Averages
Monthly
Summary
United States of America

LOOMIS, WASHINGTON


Home > North America > United States > Washington
Elevation: 1471 feet     Latitude: 48 58N     Longitude: 119 30W

WEATHER
 
SELECT A DAY
Number of Records: 141,145;   Date Range: 1/1/95 - 12/16/14
 
SHARE

PRINT THIS DATA

[ ← Previous Day ]
WEATHER ALMANAC - JANUARY 31, 2013
[ Next Day → ]
[ °C ]   °F
Weather ElementAverageHighLow
Temperature26.8 °F34.2 °F (5:00 pm)19.4 °F (7:00 am)
Dewpoint25.3 °F30.2 °F (5:00 pm)18.5 °F (7:00 am)
Humidity94.3 %99 % (1:00 am)82 % (4:00 pm)
Barometer30.29 in30.33 in (2:00 am)30.24 in (4:00 pm)
Wind Speed1.4 mph3.5 mph (11:00 am)
Weather ElementAverage
Wind DirectionSE (138.9 °)

Weather ElementTotal
Precipitation---
Heating Degree Days38.2 (Base 65)
Averaged from 27 records on January 31, 2013
WEATHER CONDITIONS BREAKOUT
WIND DIRECTION BREAKOUT
WEATHER BY HOUR - JANUARY 31, 2013
[ °C ]   °F
Local TimeTemperatureDewpointHumidityBarometerVisibilityWind DirectionWind SpeedGust SpeedPrecipitationEventsConditions
1:00 AM22.6 °F22.3 °F99 %30.32 inSW (230°)1.2 mph
2:00 AM23.0 °F22.6 °F99 %30.33 inSouth (190°)1.2 mph
3:00 AM23.5 °F23.2 °F99 %30.33 inSW (220°)1.2 mph
4:00 AM25.0 °F24.0 °F96 %30.32 inSouth (170°)2.3 mph
4:00 AM24.6 °F24.3 °F99 %30.32 inSouth (170°)2.3 mph
5:00 AM24.4 °F24.1 °F99 %30.32 inSSW (200°)2.3 mph
6:00 AM22.5 °F21.9 °F98 %30.32 inEast (100°)1.2 mph
7:00 AM19.4 °F18.5 °F96 %30.32 inCalm
8:00 AM21.2 °F20.5 °F97 %30.32 inEast (80°)1.2 mph
9:00 AM23.2 °F22.8 °F99 %30.32 inENE (60°)1.2 mph
10:00 AM25.0 °F24.0 °F96 %30.32 inSSW (200°)1.2 mph
10:00 AM24.6 °F24.3 °F99 %30.32 inSSW (200°)1.2 mph
11:00 AM25.7 °F25.3 °F99 %30.31 inSouth (190°)3.5 mph
12:00 PM27.9 °F27.0 °F96 %30.30 inWSW (240°)2.3 mph
1:00 PM29.8 °F26.4 °F87 %30.27 inESE (110°)1.2 mph
2:00 PM31.6 °F27.5 °F85 %30.26 inSSW (200°)3.5 mph
3:00 PM33.1 °F28.8 °F84 %30.25 inCalm
4:00 PM33.0 °F30.0 °F82 %30.24 inNNE (30°)1.2 mph
4:00 PM33.4 °F29.7 °F86 %30.24 inNNE (30°)1.2 mph
5:00 PM34.2 °F30.2 °F85 %30.24 inWSW (240°)1.2 mph
6:00 PM31.6 °F29.8 °F93 %30.24 inEast (90°)1.2 mph
7:00 PM29.8 °F28.2 °F94 %30.25 inNNW (340°)1.2 mph
8:00 PM29.7 °F28.4 °F95 %30.24 inEast (80°)1.2 mph
9:00 PM29.1 °F28.0 °F96 %30.25 inWSW (240°)2.3 mph
10:00 PM26.0 °F25.0 °F94 %30.26 inENE (70°)1.2 mph
10:00 PM25.9 °F25.0 °F96 %30.26 inENE (70°)1.2 mph
11:00 PM23.4 °F22.6 °F97 %30.27 inCalm
Hourly data recorded from CWYY, located miles away from Loomis, Washington







STORIES FROM OUR PARTNERS